Regional Weather Roundup
Issued by NWS Charleston, SC

Current Version | Previous Version | Text Only | Print | Product List | Glossary Off
Versions: 1 2 3 4 5 6 7 8 9 10 11 12 13 14 15 16 17 18 19 20 21 22 23 24 25 26 27 28 29 30 31 32 33 34 35 36 37 38 39 40 41 42 43 44 45 46 47 48 49 50

000
ASUS42 KCHS 020210
RWRCHS
REGIONAL WEATHER ROUNDUP
NATIONAL WEATHER SERVICE CHARLESTON SC
1000 PM EDT MON SEP 01 2014

NOTE: "FAIR" INDICATES FEW OR NO CLOUDS BELOW 12,000 FEET WITH NO
SIGNIFICANT WEATHER AND/OR OBSTRUCTIONS TO VISIBILITY.

NOT ALL STATIONS ARE QUALITY CONTROLLED BY THE NATIONAL
WEATHER SERVICE. USE DATA WITH CAUTION...ESPECIALLY
DEWPOINT OBSERVATIONS.

SCZ027-030-031-034>040-042>050-020300-
...SOUTH CAROLINA...

CITY           SKY/WX    TMP DP  RH WIND       PRES   REMARKS
N CHARLESTON   MOCLDY    82  76  81 S6        30.09S
WATERFRONT PRK   N/A     82 N/A N/A S7          N/A
FORT JOHNSON   NOT AVBL
MOUNT PLEASANT FAIR      81  79  94 S7        30.09S
JOHNS ISLAND   PTCLDY    82  81  94 CALM      30.10R HX  95
PINOPOLIS        N/A     82  77  83 S3        30.00R HX  91
MONCKS CORNER    N/A     81  79  94 CALM      30.08S
SUMMERVILLE    FAIR      79  79 100 CALM      30.10R
BEAUFORT MCAS  PTCLDY    82  76  81 SW3       30.09R
BEAUFORT ARPT  FAIR      81  77  89 CALM      30.08S
HILTON HEAD IS PTCLDY    82  79  89 S3        30.10S HX  93
GEORGETOWN     NOT AVBL
WALTERBORO     MOCLDY    79 N/A N/A S3        30.10R
ORANGEBURG     CLOUDY    80  72  76 S5        30.09R
BARNWELL       FAIR      79  73  83 CALM      30.09R
AIKEN          FAIR      79  77  94 CALM      30.13R
MANNING        FAIR      81  77  89 S3        30.08R
KINGSTREE      NOT AVBL
COLUMBIA       CLOUDY    79  74  84 CALM      30.08R
SUMTER         CLOUDY    78  75  90 CALM      30.07R
FLORENCE       CLOUDY    81  70  69 S7        30.08R
MYRTLE BEACH   CLEAR     82  73  74 S7        30.08R
N MYRTLE BEACH MOCLDY    83  75  77 S10       30.08R HX  90

$$

GAZ063-065-086>088-099>101-113>116-118-119-134-136>141-150-020300-
...GEORGIA...

CITY           SKY/WX    TMP DP  RH WIND       PRES   REMARKS
SAVANNAH ARPT  MOCLDY    83  75  77 SW5       30.10R HX  90
HUNTER AAF     MOCLDY    83  77  83 S3        30.08R HX  91
FORT STEWART   PTCLDY    82  75  80 S3        30.09R
STATESBORO     NOT AVBL
SYLVANIA       PTCLDY    82  78  86 CALM      30.10R HX  92
CLAXTON        NOT AVBL
THOMSON        CLOUDY    78  78  99 CALM      30.14S
AUGUSTA-BUSH   RAIN      77  74  90 CALM      30.09R FOG
AUGUSTA-DANIEL LGT RAIN  80  74  81 CALM      30.11R
SWAINSBORO     FAIR      82  73  74 CALM      30.11R
VIDALIA          N/A     77  73  88 S5        30.10R
ALMA           CLOUDY    80  74  81 CALM      30.09R
WAYCROSS       CLOUDY    81  75  82 CALM      30.10R
JESUP            N/A     84  77  79 CALM      30.10R HX  94
BRUNSWICK      PTCLDY    84  73  70 SE3       30.11R THUNDER HX  91
SAINT SIMONS   PTCLDY    83  74  74 S6        30.10R

$$

SCZ027-028-034-036>038-045-046-048>050-GAZ119-141-020300-
...LAKE AND SUPPLEMENTAL COASTAL OBSERVATIONS...

STATION/POSITION TIME  TEMP    WIND        PRES    WAVE   SWELL
                       AIR SEA DIR/SP/G            HT/PER HT/PER/DIR
                 (UTC) (F)     (DEG/KT/KT) (MB)    (FT/S) (FT/S/D)
UPR LAKE MARION  NOT AVBL
WINYAH BAY       0100   81     200/  3     1018.0S
LAKE MURRAY      0100   81        CALM     1017.6R
ACE BASIN NERRS  0100   82     160/  2     1018.0S
FORT PULASKI     0200   83     150/  3/  6 1019.2R
SAPELO ISLAND    0100   84     150/  5     1019.0S

$$

ANZ835-935-AMZ111-154-330-350-352-354-374-450-454-472-020300-
...C-MAN AND BUOY OBSERVATIONS...

STATION/POSITION TIME  TEMP    WIND        PRES    WAVE   SWELL
                       AIR SEA DIR/SP/G            HT/PER HT/PER/DIR
                 (UTC) (F)     (DEG/KT/KT) (MB)    (FT/S) (FT/S/D)
FOLLY BEACH CMAN 0100   84     180/ 10/ 12 1019.1R
BUOY 41004       0200   83 84  180/  6/  8 1019.0R   2/ 8   2/ 8
BUOY 41008       0200   84 85  160/ 10/ 12 1019.0R   2/ 9   2/110/ 9
5E ST. MARYS GA  0100      85                N/A     2/ 9
FRYING PAN BUOY  NOT AVBL
BUOY 41025       0200   82     200/ 16/ 19 1018.2R   4/ 4   2/ 70/10
CAPE LOOKOUT NC  0100   81     220/  8/ 10 1018.4R
BUOY 41002       0109   82 84  210/ 10/ 12 1021.3    3/12   3/ 80/12
BUOY 41010       0200   83 85  110/  6/  8 1020.0R   2/ 9   2/ 80/ 9
BUOY 41012       NOT AVBL
ST AUGUSTINE FL  0200   83     160/ 13/ 14 1019.8R
CAPERS NEARSHORE 0100   83     190/  8/  8   N/A
FRIPP NEARSHORE  NOT AVBL


$$


USA.gov is the U.S. government's official web portal to all federal, state and local government web resources and services.